STARLINK-35028, 65381

Orbit data source: Space-Track

STARLINK-35028, 65381 is a payload satellite owned by SpaceX/Seattle (US) in SSO that was launched on Sat, 30 Aug 2025 UTC via an FALCON 9 launch vehicle from the Air Force Western Test Range (AFWTR). Payload-class satellites include a variety of spacecraft equipped with specific instruments for various scientific and technological missions. These include communications satellites like Starlink; space stations such as the ISS; scientific satellites like the Hubble; Earth observation satellites from companies like Planet Labs, Umbra, and HawkEye 360; GPS; miniature CubeSats for education and research; and military/defense satellites.

Loading next visibility...
Identifier
65381, 2025-191C
Orbit
SSO
Country
Flag of USUS
Related business
Manufacturer
SpaceX/Seattle
Mission
Operational Commercial Communications
Bus & Motor
STARLINK V2MO, Unknown motor
Mass
575 kg wet, ~530 kg dry
Launch date (UTC)
2025-08-30 (10 months ago)
Launch vehicle
FALCON 9
Launch site
Air Force Western Test Range (AFWTR)
Object type
Payload
Rocket body
Debris
Shape & HBR
Box + 2 Pan, 17.7 m
Radar Cross Section
36.964 m², Large (>1 m²)

Expand to show TLE details & history
Last TLE update: 12 hours ago

TLE from 12 hours ago
0 STARLINK-35028
1 65381U 25191C   26171.36504432  .00006289  00000-0  43925-3 0  9996
2 65381  97.3388  41.7045 0002694  94.2381 265.9155 15.05667711 45722
Epoch: 2026-06-20T08:45Z
TLE epoch observation values (Epoch: 2026-06-20T08:45:39.829Z)
Latitude
0.00005°
Longitude
1.70782°
Altitude
552.663 km
Speed
7.585 km/s
True Right ascension
02h 46m 49s
True Declination
0° 00' 00"
Sunlit
Object was in daylight at epoch
Visualization orbit readout
Latitude
Unknown
Longitude
Unknown
Altitude
Unknown
Speed
Unknown
Apparent Right ascension
Unknown
Apparent Declination
Unknown
Sunlit
N/A
Visualization observer readout
Local Sidereal Time
07:20:21
Azimuth
Unknown
Elevation
Unknown
Doppler factor
Unknown
Orbital elements
Apogee altitude
548.304 km
Perigee altitude
544.573 km
Semi-major axis
6,924.576 km
Eccentricity
0.00027
Inclination
97.3388°
RAAN
41.7045°
Arg. of periapsis
94.2381°
True anomaly
265.88471°
Mean anomaly
265.9155°
Eccentric anomaly
265.9001°
Mean motion
3.76663 °/min
Orbital period
95.58 mins
BSTAR
0.00043925
Loading maneuver chart data...
Computing Atmospheric mass density...
Loading historical data...
Loading historical data...
Loading historical data...
Loading historical data...
Loading historical data...
Loading historical data...
Loading historical data...

Documentation

Showing up to 5 results
|